La Junta, CO

5:33 PM MDT on April 25, 2017 (GMT -0600)
La Junta Municipal

Weather History for KLHX - May, 2014

Change the Weather History Date:

Saturday, May 10, 2014

  Actual Average Record
Temperature  
Mean Temperature 64 °F 61 °F  
Max Temperature 84 °F 76 °F 94 °F (1984)
Min Temperature 44 °F 46 °F 32 °F (1979)
Degree Days  
Heating Degree Days 1 5  
Month to date heating degree days 37 66  
Since 1 July heating degree days 5099 5189  
Cooling Degree Days 0 1  
Month to date cooling degree days 20 10  
Year to date cooling degree days 34 19  
Growing Degree Days 15 (Base 50)    
Moisture  
Dew Point 30 °F    
Average Humidity 38    
Maximum Humidity 65    
Minimum Humidity 10    
Precipitation  
Precipitation 0.00 in 0.05 in 1.02 in (1953)
Month to date precipitation 0.05  
Year to date precipitation 1.95  
Sea Level Pressure  
Sea Level Pressure 29.61 in    
Wind  
Wind Speed 11 mph (SSW)    
Max Wind Speed 29 mph    
Max Gust Speed 36 mph    
Visibility 10 miles    
Events      
T = Trace of Precipitation, MM = Missing Value Source: NWS Daily Summary

Daily Weather History Graph

Daily Weather History Graph

Search for Another Location

Airport or City:

Trip Planner

Search our weather history database for the weather conditions in past years. The results will help you decide how hot, cold, wet, or windy it might be!

Date:

Astronomy

May. 10, 2014 Rise Set
Actual Time 5:48 AM MDT 7:53 PM MDT
Civil Twilight 5:18 AM MDT 8:22 PM MDT
Nautical Twilight 4:43 AM MDT 8:58 PM MDT
Astronomical Twilight 4:04 AM MDT 9:36 PM MDT
Moon 3:55 PM MDT (5/10) 3:18 AM MDT (5/10)
Length of Visible Light 15h 03m
Length of Day
14h 05m
Waxing Gibbous, 82% of the Moon is Illuminated
May 10
Waxing Gibbous
May 14
Full
May 21
Last Quarter
May 28
New
Jun 5
First Quarter

Hourly Weather History & Observations

Time (MDT) Temp. Dew Point Humidity Pressure Visibility Wind Dir Wind Speed Gust Speed Precip Events Conditions
12:53 AM 53.1 °F 34.0 °F 48% 29.74 in 10.0 mi SSW 6.9 mph - N/A   Clear
1:53 AM 48.9 °F 32.0 °F 52% 29.73 in 10.0 mi WNW 9.2 mph - N/A   Clear
2:53 AM 48.9 °F 34.0 °F 56% 29.73 in 10.0 mi West 5.8 mph - N/A   Clear
3:53 AM 50.0 °F 34.0 °F 54% 29.74 in 10.0 mi NNW 4.6 mph - N/A   Clear
5:53 AM 46.9 °F 35.1 °F 63% 29.76 in 10.0 mi West 11.5 mph - N/A   Clear
6:53 AM 48.9 °F 36.0 °F 61% 29.77 in 10.0 mi West 8.1 mph - N/A   Clear
7:53 AM 52.0 °F 36.0 °F 54% 29.77 in 10.0 mi WNW 9.2 mph - N/A   Clear
8:53 AM 57.9 °F 36.0 °F 44% 29.76 in 10.0 mi West 5.8 mph - N/A   Clear
9:53 AM 63.0 °F 35.1 °F 35% 29.74 in 10.0 mi SSW 3.5 mph - N/A   Clear
10:53 AM 66.9 °F 35.1 °F 31% 29.72 in 10.0 mi South 6.9 mph - N/A   Clear
11:53 AM 72.0 °F 34.0 °F 25% 29.68 in 10.0 mi SE 8.1 mph - N/A   Clear
12:53 PM 75.0 °F 30.0 °F 19% 29.65 in 10.0 mi ESE 13.8 mph - N/A   Clear
1:53 PM 81.0 °F 26.1 °F 13% 29.59 in 10.0 mi ESE 18.4 mph 27.6 mph N/A   Clear
2:53 PM 82.9 °F 24.1 °F 12% 29.54 in 10.0 mi ESE 18.4 mph - N/A   Clear
3:53 PM 82.0 °F 23.0 °F 11% 29.49 in 10.0 mi ESE 18.4 mph - N/A   Clear
4:39 PM 84.0 °F 21.0 °F 10% 29.59 in 10.0 mi SE 16.1 mph 27.6 mph N/A   Clear
4:53 PM 84.0 °F 21.0 °F 10% 29.44 in 10.0 mi South 21.9 mph 27.6 mph N/A   Clear
5:53 PM 82.0 °F 21.0 °F 10% 29.42 in 10.0 mi SSE 26.5 mph 31.1 mph N/A   Partly Cloudy
6:53 PM 80.1 °F 24.1 °F 13% 29.44 in 10.0 mi SW 10.4 mph - N/A   Partly Cloudy
7:53 PM 77.0 °F 27.0 °F 16% 29.44 in 10.0 mi West 4.6 mph - N/A   Clear
9:53 PM 73.0 °F 28.9 °F 20% 29.44 in 10.0 mi North 3.5 mph - N/A   Clear
10:53 PM 71.1 °F 30.0 °F 22% 29.42 in 10.0 mi North 6.9 mph - N/A   Clear
11:53 PM 68.0 °F 26.1 °F 21% 29.42 in 10.0 mi ENE 12.7 mph 17.3 mph N/A   Clear